TimeHST,TemperatureF,Dew PointF,Humidity,Sea Level PressureIn,VisibilityMPH,Wind Direction,Wind SpeedMPH,Gust SpeedMPH,PrecipitationIn,Events,Conditions,WindDirDegrees,DateUTC
12:56 AM,73.9,64.0,71,30.03,10.0,ESE,5.8,-,N/A,,Mostly Cloudy,120,2012-11-30 10:56:00
1:56 AM,75.0,64.9,71,30.03,10.0,ESE,5.8,-,N/A,,Overcast,120,2012-11-30 11:56:00
2:56 AM,75.0,62.1,64,30.00,10.0,SE,8.1,-,N/A,,Mostly Cloudy,130,2012-11-30 12:56:00
3:56 AM,73.0,60.1,64,30.00,10.0,East,4.6,-,N/A,,Clear,90,2012-11-30 13:56:00
4:56 AM,73.0,64.9,76,30.00,10.0,East,5.8,-,N/A,,Mostly Cloudy,90,2012-11-30 14:56:00
5:56 AM,73.9,60.1,62,30.01,10.0,ESE,5.8,-,N/A,,Overcast,110,2012-11-30 15:56:00
6:56 AM,72.0,64.9,78,30.01,10.0,SSE,4.6,-,N/A,,Clear,150,2012-11-30 16:56:00
7:56 AM,75.9,62.1,62,30.03,10.0,SE,6.9,-,N/A,,Clear,140,2012-11-30 17:56:00
8:56 AM,79.0,61.0,54,30.03,10.0,SE,9.2,16.1,N/A,,Clear,130,2012-11-30 18:56:00
9:56 AM,80.1,63.0,56,30.05,10.0,SSE,9.2,-,N/A,,Scattered Clouds,160,2012-11-30 19:56:00
10:56 AM,80.1,66.0,62,30.04,10.0,South,12.7,17.3,N/A,,Scattered Clouds,190,2012-11-30 20:56:00
11:09 AM,80.6,64.4,58,30.03,10.0,SSE,10.4,-,N/A,,Mostly Cloudy,160,2012-11-30 21:09:00
11:35 AM,80.6,68.0,65,30.02,10.0,South,11.5,19.6,N/A,,Scattered Clouds,170,2012-11-30 21:35:00
11:56 AM,80.1,60.1,50,30.02,10.0,South,10.4,19.6,N/A,,Scattered Clouds,170,2012-11-30 21:56:00
12:56 PM,82.9,64.0,53,30.00,10.0,South,11.5,18.4,N/A,,Partly Cloudy,170,2012-11-30 22:56:00
1:56 PM,82.0,-9999,N/A,29.97,10.0,South,13.8,19.6,N/A,,Clear,170,2012-11-30 23:56:00
2:56 PM,81.0,64.0,56,29.97,10.0,SSE,12.7,-,N/A,,Partly Cloudy,160,2012-12-01 00:56:00
3:56 PM,80.1,64.0,58,29.97,10.0,South,10.4,18.4,N/A,,Clear,170,2012-12-01 01:56:00
4:56 PM,78.1,73.9,87,29.97,10.0,SSE,8.1,-,N/A,,Clear,160,2012-12-01 02:56:00
5:56 PM,77.0,66.9,71,30.00,10.0,SSE,6.9,-,N/A,,Clear,160,2012-12-01 03:56:00
6:56 PM,75.0,66.9,76,30.01,10.0,SSE,4.6,-,N/A,,Clear,150,2012-12-01 04:56:00
7:56 PM,73.9,73.0,97,30.03,10.0,SE,6.9,-,N/A,,Clear,140,2012-12-01 05:56:00
8:56 PM,73.9,-9999,N/A,30.04,10.0,SE,6.9,-,N/A,,Clear,140,2012-12-01 06:56:00
9:56 PM,73.0,66.0,79,30.06,10.0,SE,3.5,-,N/A,,Clear,130,2012-12-01 07:56:00
10:56 PM,72.0,66.0,81,30.06,10.0,Calm,Calm,-,N/A,,Clear,0,2012-12-01 08:56:00
11:56 PM,72.0,-9999,N/A,30.03,10.0,SSE,4.6,-,N/A,,Clear,150,2012-12-01 09:56:00